Terug naar catalogus

STARLINK-30596

ActiefCommunicatieVLEO
NORAD 58110·PAYLOAD·🇺🇸 United States

Gelanceerd Oct 21, 2023 vanaf Vandenberg Space Force Base

Loading…

Volgende Passages (komende 24 uur)

TLE

VersSource: CelesTrak SupGP

Epoch: Sep 15, 2026, 01:53 UTC

1 58110C 23161P   26258.07895833  .00041550  00000+0  12277-2 0  2587
2 58110  53.1607   3.3915 0001170  86.7563 231.1664 15.34367063    16

Volg STARLINK-30596 in realtime met AllMySat

Download on the App Store